Back to catalog

CUAVA-2

AliveScienceSSO
NORAD 60527·PAYLOAD·🇦🇺 Australia

Launched Aug 16, 2024 from Vandenberg Space Force Base

Loading…

Next Passes (next 24 hours)

TLE

FreshSource: Space-Track

Epoch: Sep 14, 2026, 11:11 UTC

1 60527U 24149BM  26257.46662147  .00009784  00000-0  26386-3 0  9994
2 60527  97.3675 339.2314 0005605 344.5167  15.5906 15.37993114115882

Track CUAVA-2 in real time with AllMySat

Download on the App Store